| time (UTC) | temp F | wind direction | speed MPH | gust MPH | rain 1hr in | rain 24hr in | rain mn in | humidity % | barometer mb |
| 20260503010031 | 61 | 191 | 2.0 | 5.0 | 0.00 | 0.00 | 0.00 | 41 | 1007.6 |
| 20260503004508 | 61 | 181 | 2.0 | 5.0 | 0.00 | 0.00 | 0.00 | 43 | 1007.4 |
| 20260503003005 | 63 | 233 | 2.0 | 6.0 | 0.00 | 0.00 | 0.00 | 64 | 1007.5 |
| 20260503001548 | 63 | 162 | 2.0 | 5.0 | 0.00 | 0.00 | 0.00 | 49 | 1007.5 |
| 20260503000100 | 64 | 228 | 3.0 | 6.0 | 0.00 | 0.00 | 0.00 | 56 | 1007.4 |
| 20260502234529 | 64 | 219 | 3.0 | 5.0 | 0.00 | 0.00 | 0.00 | 53 | 1007.3 |
| 20260502233026 | 64 | 146 | 2.0 | 6.0 | 0.00 | 0.00 | 0.00 | 50 | 1007.5 |
| 20260502231506 | 64 | 204 | 2.0 | 6.0 | 0.00 | 0.00 | 0.00 | 51 | 1007.6 |
| 20260502230004 | 66 | 198 | 2.0 | 6.0 | 0.00 | 0.00 | 0.00 | 47 | 1007.8 |
| 20260502224601 | 65 | 153 | 2.0 | 7.0 | 0.00 | 0.00 | 0.00 | 47 | 1008.0 |
| 20260502223043 | 65 | 194 | 3.0 | 5.0 | 0.00 | 0.00 | 0.00 | 52 | 1008.3 |
| 20260502221539 | 66 | 192 | 3.0 | 9.0 | 0.00 | 0.00 | 0.00 | 45 | 1008.6 |
| 20260502220020 | 66 | 145 | 3.0 | 6.0 | 0.00 | 0.00 | 0.00 | 46 | 1008.7 |
| 20260502214517 | 67 | 217 | 2.0 | 6.0 | 0.00 | 0.00 | 0.00 | 47 | 1009.1 |
| 20260502213014 | 69 | 193 | 3.0 | 6.0 | 0.00 | 0.00 | 0.00 | 48 | 1009.2 |
| 20260502211511 | 68 | 188 | 2.0 | 6.0 | 0.00 | 0.00 | 0.00 | 43 | 1009.3 |
| 20260502210009 | 68 | 145 | 3.0 | 7.0 | 0.00 | 0.00 | 0.00 | 37 | 1009.4 |
| 20260502204515 | 68 | 186 | 3.0 | 6.0 | 0.00 | 0.00 | 0.00 | 45 | 1009.5 |
| 20260502203013 | 68 | 147 | 2.0 | 6.0 | 0.00 | 0.00 | 0.00 | 42 | 1009.6 |
| 20260502200003 | 70 | 149 | 3.0 | 7.0 | 0.00 | 0.00 | 0.00 | 37 | 1009.9 |
| 20260502194502 | 70 | 249 | 1.0 | 6.0 | 0.00 | 0.00 | 0.00 | 34 | 1010.0 |
| 20260502193059 | 70 | 221 | 2.0 | 6.0 | 0.00 | 0.00 | 0.00 | 38 | 1010.3 |
| 20260502190042 | 69 | 162 | 2.0 | 6.0 | 0.00 | 0.00 | 0.00 | 25 | 1010.6 |
| 20260502184541 | 69 | 169 | 3.0 | 9.0 | 0.00 | 0.00 | 0.00 | 28 | 1010.8 |
| 20260502183040 | 69 | 187 | 3.0 | 6.0 | 0.00 | 0.00 | 0.00 | 26 | 1010.9 |
| 20260502163018 | 64 | 90 | 2.0 | 8.0 | 0.00 | 0.00 | 0.00 | 26 | 1011.3 |
| 20260502161509 | 63 | 120 | 0.0 | 5.0 | 0.00 | 0.00 | 0.00 | 28 | 1011.3 |
| 20260502151535 | 60 | 75 | 2.0 | 5.0 | 0.00 | 0.00 | 0.00 | 29 | 1011.2 |
| 20260502123027 | 58 | 81 | 0.0 | 2.0 | 0.00 | 0.00 | 0.00 | 34 | 1010.2 |
| 20260502121519 | 58 | 50 | 0.0 | 1.0 | 0.00 | 0.00 | 0.00 | 36 | 1010.2 |
| 20260502120104 | 58 | 76 | 0.0 | 2.0 | 0.00 | 0.00 | 0.00 | 36 | 1010.2 |
| 20260502114601 | 56 | 319 | 0.0 | 0.0 | 0.00 | 0.00 | 0.00 | 38 | 1010.2 |
| 20260502113042 | 56 | 319 | 0.0 | 0.0 | 0.00 | 0.00 | 0.00 | 36 | 1010.2 |
| 20260502111548 | 57 | 319 | 0.0 | 0.0 | 0.00 | 0.00 | 0.00 | 36 | 1010.2 |
| 20260502110026 | 57 | 319 | 0.0 | 0.0 | 0.00 | 0.00 | 0.00 | 36 | 1010.1 |
| 20260502104521 | 57 | 319 | 0.0 | 0.0 | 0.00 | 0.00 | 0.00 | 37 | 1010.1 |
| 20260502103003 | 57 | 319 | 0.0 | 0.0 | 0.00 | 0.00 | 0.00 | 36 | 1010.1 |
| 20260502101502 | 57 | 319 | 0.0 | 0.0 | 0.00 | 0.00 | 0.00 | 35 | 1010.2 |
| 20260502091522 | 57 | 319 | 0.0 | 0.0 | 0.00 | 0.00 | 0.00 | 38 | 1010.3 |
| 20260502080105 | 57 | 319 | 0.0 | 0.0 | 0.00 | 0.00 | 0.00 | 40 | 1011.1 |
| 20260502070028 | 56 | 319 | 0.0 | 2.0 | 0.00 | 0.00 | 0.00 | 38 | 1011.3 |
| 20260502064531 | 56 | 335 | 0.0 | 2.0 | 0.00 | 0.00 | 0.00 | 37 | 1011.2 |
| 20260502063014 | 56 | 319 | 0.0 | 1.0 | 0.00 | 0.00 | 0.00 | 37 | 1011.2 |
| 20260502061511 | 56 | 321 | 0.0 | 1.0 | 0.00 | 0.00 | 0.00 | 38 | 1011.2 |
| 20260502060054 | 56 | 315 | 1.0 | 2.0 | 0.00 | 0.00 | 0.00 | 40 | 1011.1 |
| 20260502054551 | 56 | 315 | 1.0 | 2.0 | 0.00 | 0.00 | 0.00 | 42 | 1011.0 |
| 20260502053038 | 56 | 313 | 1.0 | 3.0 | 0.00 | 0.00 | 0.00 | 43 | 1011.1 |
| 20260502051536 | 56 | 316 | 1.0 | 2.0 | 0.00 | 0.00 | 0.00 | 47 | 1011.0 |
| 20260502050015 | 56 | 321 | 1.0 | 2.0 | 0.00 | 0.00 | 0.00 | 51 | 1010.9 |
| 20260502044516 | 56 | 301 | 1.0 | 3.0 | 0.00 | 0.00 | 0.00 | 59 | 1010.8 |
| 20260502043100 | 55 | 311 | 0.0 | 1.0 | 0.00 | 0.00 | 0.00 | 65 | 1010.6 |
| 20260502041558 | 55 | 311 | 0.0 | 2.0 | 0.00 | 0.00 | 0.00 | 67 | 1010.4 |
| 20260502040039 | 56 | 314 | 0.0 | 2.0 | 0.00 | 0.00 | 0.00 | 67 | 1010.3 |
| 20260502034538 | 56 | 311 | 0.0 | 2.0 | 0.00 | 0.00 | 0.00 | 67 | 1010.1 |
| 20260502033020 | 56 | 307 | 0.0 | 2.0 | 0.00 | 0.00 | 0.00 | 67 | 1010.0 |
| 20260502031520 | 56 | 301 | 0.0 | 2.0 | 0.00 | 0.00 | 0.00 | 68 | 1009.9 |
| 20260502030003 | 56 | 293 | 0.0 | 2.0 | 0.00 | 0.00 | 0.00 | 69 | 1009.8 |
| 20260502024502 | 57 | 340 | 0.0 | 2.0 | 0.00 | 0.00 | 0.00 | 70 | 1009.5 |
| 20260502023044 | 58 | 307 | 0.0 | 2.0 | 0.00 | 0.00 | 0.00 | 72 | 1009.4 |
| 20260502021544 | 59 | 302 | 0.0 | 2.0 | 0.00 | 0.00 | 0.00 | 70 | 1009.5 |
| 20260502020026 | 60 | 310 | 0.0 | 2.0 | 0.00 | 0.00 | 0.00 | 64 | 1009.4 |
| 20260502014523 | 61 | 301 | 0.0 | 3.0 | 0.00 | 0.00 | 0.00 | 59 | 1009.3 |
| 20260502013005 | 62 | 295 | 0.0 | 3.0 | 0.00 | 0.00 | 0.00 | 56 | 1009.3 |
| 20260502011508 | 63 | 278 | 0.0 | 2.0 | 0.00 | 0.00 | 0.00 | 50 | 1009.4 |